Regional Weather Roundup
Issued by NWS

Home | Current Version | Previous Version | Text Only | Print | Product List | Glossary On
Versions: 1 2 3 4 5 6 7 8 9 10 11 12 13 14 15 16 17 18 19 20 21 22 23 24 25 26 27 28 29 30 31 32 33 34 35 36 37 38 39 40 41 42 43 44 45 46 47 48 49 50
000
ASUS43 KMPX 052110
RWRMN
WEATHER ROUNDUP FOR MINNESOTA
NATIONAL WEATHER SERVICE TWIN CITIES/CHANHASSEN MN
300 PM CST MON DEC 05 2016


NOTE: "FAIR" INDICATES FEW OR NO CLOUDS BELOW 12,000 FEET WITH NO
SIGNIFICANT WEATHER AND/OR OBSTRUCTIONS TO VISIBILITY. N/A MEANS
CURRENT SKY AND/OR WEATHER CONDITIONS ARE NOT AVAILABLE.

MNZ060>063-068>070-052200-
   Twin Cities Metro

CITY           SKY/WX    TMP DP  RH WIND       PRES   REMARKS
TWIN CITIES    CLOUDY    39  31  72 S18       29.67S
ST PAUL        CLOUDY    38  33  82 SE18G26   29.69F
CRYSTAL        CLOUDY    39  30  70 SE17G23   29.64S
BLAINE         CLOUDY    39  36  87 SE13G20   29.65F
LAKEVILLE      CLOUDY    36  34  93 SE12G22   29.65F
EDEN PRAIRIE   CLOUDY    40  32  73 SE14      29.64S
SOUTH ST PAUL  CLOUDY    38  32  78 SE10G18   29.67F
LAKE ELMO      CLOUDY    37  32  81 SE13G22   29.69F
$$
MNZ001>005-007-008-013>017-022>024-027-028-052200-
   Northwest Minnesota

CITY           SKY/WX    TMP DP  RH WIND       PRES   REMARKS
BEMIDJI        CLOUDY    30  27  90 E9        29.62F WCI  21
HALLOCK        CLOUDY    30  28  93 E12       29.65S WCI  21
ROSEAU         CLOUDY    30  27  86 E12       29.68S WCI  21
WARROAD        CLOUDY    30  27  86 E12       29.69F WCI  21
THIEF RVR FALL CLOUDY    30  27  88 E15G24    29.61F WCI  19
CROOKSTON      CLOUDY    30  28  93 E14       29.61R WCI  20
FOSSTON        CLOUDY    30  27  86 E9        29.60R WCI  22
DETROIT LAKES  CLOUDY    32  28  86 SE15      29.56F WCI  22
MOORHEAD       MOSUNNY   36  28  75 E13G18    29.54F
PARK RAPIDS    CLOUDY    33  25  72 E9        29.59R WCI  25
$$
MNZ006-009>011-018-025>026-052200-
   North Central Minnesota

CITY           SKY/WX    TMP DP  RH WIND       PRES   REMARKS
BAUDETTE       CLOUDY    30  24  78 E10       29.69F WCI  21
FLAG ISLAND    CLOUDY    30  27  86 E7        29.71R WCI  23
INTL FALLS     CLOUDY    30  24  78 E9        29.73R WCI  22
WASKISH        CLOUDY    30  27  86 E14       29.66F WCI  20
BIG FORK       MOCLDY    30  27  86 E9        29.68F WCI  22
LONGVILLE      PTSUNNY   34  28  80 E8        29.61F WCI  27
GRAND RAPIDS   MOCLDY    33  28  81 VRB5      29.68F WCI  29
CRANE LAKE     CLOUDY    28  27  93 CALM      29.77R
ORR            CLOUDY    30  25  80 CALM      29.69F
COOK           CLOUDY    30  27  86 E5        29.72F WCI  25
$$
MNZ012-019>021-037-052200-
   Northeast Minnesota

CITY           SKY/WX    TMP DP  RH WIND       PRES   REMARKS
DULUTH         MOCLDY    32  29  88 E12       29.72R WCI  23
ELY            CLOUDY    30  27  86 E7        29.75S WCI  23
HIBBING        CLEAR     31  26  82 E8        29.70S WCI  23
EVELETH        CLEAR     32  28  83 E3        29.73R
DULUTH HARBOR  MOCLDY    37  34  87 NE14      29.76F
TWO HARBORS    CLEAR     36  30  80 E5        29.74R
SILVER BAY     PTCLDY    32  28  86 E6        29.75S WCI  26
GRAND MARAIS     N/A     35  29  78 CALM      29.83R
G MARAIS ARPRT CLOUDY    28  21  74 CALM      29.78R
$$
MNZ029>031-032-039>041-046>048-054>057-064-052200-
   West Central Minnesota

CITY           SKY/WX    TMP DP  RH WIND       PRES   REMARKS
FERGUS FALLS   CLOUDY    36  30  80 E17       29.53F
WHEATON        PTSUNNY   36  34  93 E16       29.51R
MORRIS         CLOUDY    37  34  87 SE18      29.49F
ALEXANDRIA     CLOUDY    35  32  88 SE14      29.55R WCI  26
ELBOW LAKE     CLOUDY    34  32  92 SE20G25   29.49F WCI  23
WADENA         LGT RAIN  30  28  93 E13       29.56F WCI  20
GLENWOOD       CLOUDY    34  32  93 E12       29.54S WCI  25
APPLETON       CLOUDY    37  34  87 E9        29.50S
BENSON         MIX PCPN  37  32  81 SE10G18   29.52R
ORTONVILLE     MOSUNNY   37  34  87 SE14      29.48R
MADISON        CLOUDY    43  39  87 SE8       29.49S
WILLMAR        FAIR      37  36  93 SE15      29.54F
$$
MNZ033>034-036-042>043-049>051-058-059-052200-
   Central Minnesota

CITY           SKY/WX    TMP DP  RH WIND       PRES   REMARKS
ST CLOUD       CLOUDY    35  33  92 E12       29.60F WCI  27
PAYNESVILLE    CLOUDY    37  36  97 E13       29.57S
AITKIN         CLOUDY    36  27  69 E9        29.64S
PINE RIVER     MOSUNNY   34  28  80 E14       29.65S WCI  24
BRAINERD       LGT SNOW  33  29  85 SE8G17    29.63S VSB 3/4 WCI  26
STAPLES        LGT SNOW  30  28  93 E6        29.59S WCI  24
LONG PRAIRIE   LGT SNOW  32  32 100 E9        29.58S WCI  24
LITTLE FALLS   LGT SNOW  32  30  93 E10       29.59F WCI  24
LITCHFIELD     MOSUNNY   39  36  87 SE10      29.58S
BUFFALO        CLOUDY    39  32  75 SE9       29.62F
MAPLE LAKE     PTSUNNY   39  35  83 SE8       29.61F
$$
MNZ037-044-045-052-053-052200-
   East Central Minnesota

CITY           SKY/WX    TMP DP  RH WIND       PRES   REMARKS
PRINCETON      CLOUDY    36  34  93 E7        29.64F
MORA           LGT SNOW  32  30  93 E6        29.69F WCI  26
CAMBRIDGE      MIX PCPN  37  34  87 E5        29.65S
RUSH CITY      CLOUDY    34  32  93 E7        29.68S WCI  28
MOOSE LAKE     LGT SNOW  34  30  86 E5        29.69R WCI  30
HINCKLEY       LGT SNOW  34  32  93 E10       29.69F WCI  26
CLOQUET        CLOUDY    34  28  80 E9G16     29.71S WCI  26
MCGREGOR       CLOUDY    34  30  86 E6        29.68R WCI  29
$$
MNZ071>073-080-081-089-090-097-098-052200-
   Southwest Minnesota

CITY           SKY/WX    TMP DP  RH WIND       PRES   REMARKS
MONTEVIDEO     CLOUDY    37  34  87 S8        29.51R
GRANITE FALLS  CLOUDY    40  36  83 SE9       29.51F
CANBY          CLOUDY    43  35  72 CALM      29.48F
MARSHALL       CLOUDY    43  33  68 S21G30    29.48F
REDWOOD FALLS  CLOUDY    41  35  79 SE15      29.51F
OLIVIA         CLOUDY    37  34  87 SE12      29.52F
PIPESTONE      MOSUNNY   41  34  75 SW20      29.48R
WINDOM         MOSUNNY   46  34  61 S17G28    29.54R
WORTHINGTON    MOSUNNY   43  34  70 S25G35    29.53R
JACKSON        CLOUDY    43  32  65 S20       29.58R
TRACY          MOSUNNY   44  35  69 S20G32    29.48F
SLAYTON        CLOUDY    40  34  78 S21G33    29.51S
$$
MNZ065>067-074>077-082>085-091>093-052200-
   South Central Minnesota

CITY           SKY/WX    TMP DP  RH WIND       PRES   REMARKS
MANKATO        CLOUDY    40  35  83 SE23      29.59F
NEW ULM        CLOUDY    43  36  75 S17G23    29.57R
ST JAMES       PTSUNNY   45  36  70 S15       29.59R
FAIRMONT       CLOUDY    43  36  76 S30G39    29.56F
GLENCOE        CLOUDY    41  36  83 SE13G18   29.58F
FARIBAULT      CLOUDY    39  34  81 SE15      29.67S
OWATONNA       PTSUNNY   37  32  81 SE18      29.66F
WASECA         CLOUDY    39  34  81 SE18      29.66R
ALBERT LEA     MOSUNNY   39  37  93 S16G28    29.66F
$$
MNZ078>079-086>088-094>096-052200-
   Southeast Minnesota

CITY           SKY/WX    TMP DP  RH WIND       PRES   REMARKS
ROCHESTER      PTSUNNY   34  32  92 S21G29    29.74F WCI  22
RED WING       CLOUDY    37  32  81 SE13G18   29.73S
STANTON        CLOUDY    39  32  76 S21G32    29.65F
DODGE CENTER   MOSUNNY   34  30  86 SE22      29.70F WCI  22
WINONA         CLOUDY    37  32  81 SE9       29.82R
AUSTIN         MOSUNNY   36  30  80 S12G22    29.72S
PRESTON        CLOUDY    32  30  92 S15G23    29.78S WCI  22
$$
ABBREVIATIONS USED IN REMARKS
   TC - TEMPERATURES IN CELSIUS
  WCI - WIND CHILL INDEX
   HX - HEAT INDEX
  VSB - VISIBILITY
$$




USA.gov is the U.S. government's official web portal to all federal, state and local government web resources and services.